Home   Weather   Samsun   Past weeks

Flag for Turkey Past Weather in Samsun, Turkey — Yesterday and Last 2 Weeks

Now
39 °F

Partly cloudy.


Feels Like: 39 °F
Forecast: 40 / 63 °F
Wind: No wind

Location: Samsun / Carsamba

Current Time: Feb 27, 2017 at 6:04:53 am

Latest Report: Feb 27, 2017 at 4:50 am


Visibility: N/A

Pressure: 30.18 "Hg

Humidity: 93%

Dew Point: 37 °F

Location of SamsunLocation

Past Weather in Samsun — Graph

°F

Samsun Temperature Yesterday

Maximum temperature yesterday: 46 °F (at 12:50 am)
Minimum temperature yesterday: 39 °F (at 9:50 pm)
Average temperature yesterday: 42 °F

High & Low Weather Summary for the Past Weeks

 TemperatureHumidityPressure
High73 °F (Feb 24, 1:50 pm)100% (Feb 16, 4:50 am)30.48 "Hg (Feb 16, 4:50 am)
Low25 °F (Feb 15, 12:50 am)22% (Feb 24, 2:50 pm)29.89 "Hg (Feb 22, 10:50 am)
Average43 °F69%30.23 "Hg
* Reported Feb 12 4:50 am — Feb 27 4:50 am, Samsun, Weather by CustomWeather, © 2017

Note: Actual official high and low records may vary slightly from our data, if they occured in-between our weather recording intervals... More about our weather records

Advertising

Samsun Weather History for the Previous 24 Hours

Scroll right to see more
 ConditionsComfort  
Time TempWeatherWind HumidityBarometerVisibility
4:50 am
Mon, Feb 27
39 °FPartly cloudy.No wind93%30.18 "HgN/A
3:50 am39 °FPartly cloudy.No wind93%30.18 "HgN/A
2:50 am39 °FPartly cloudy.1 mph93%30.18 "HgN/A
1:50 am39 °FPartly cloudy.1 mph93%30.18 "HgN/A
12:50 am39 °FPartly cloudy.2 mph93%30.21 "HgN/A
11:50 pm
Sun, Feb 26
39 °FPartly cloudy.2 mph87%30.24 "HgN/A
10:50 pm39 °FPartly cloudy.3 mph87%30.27 "HgN/A
9:50 pm39 °FPartly cloudy.3 mph87%30.27 "HgN/A
8:50 pm41 °FPartly cloudy.No wind81%30.30 "HgN/A
7:50 pm41 °FPartly cloudy.No wind81%30.30 "HgN/A
6:50 pm43 °FPartly cloudy.5 mph81%30.33 "HgN/A
5:50 pm43 °FBroken clouds.7 mph81%30.33 "HgN/A
4:50 pm43 °FBroken clouds.7 mph81%30.33 "HgN/A
3:50 pm43 °FBroken clouds.6 mph81%30.36 "HgN/A
2:50 pm43 °FBroken clouds.5 mph87%30.36 "HgN/A
1:50 pm45 °FBroken clouds.2 mph76%30.39 "HgN/A
12:50 pm45 °FBroken clouds.No wind76%30.42 "HgN/A
11:50 am43 °FSprinkles. Partly sunny.3 mph81%30.42 "Hg6 mi
10:50 am43 °FSprinkles. Partly sunny.3 mph87%30.45 "Hg6 mi
9:50 am43 °FSprinkles. Partly sunny.1 mph87%30.45 "Hg5 mi
8:50 am41 °FSprinkles. Partly sunny.2 mph87%30.42 "Hg5 mi
7:50 am41 °FSprinkles. Partly sunny.10 mph87%30.42 "Hg5 mi
6:50 am41 °FSprinkles. Partly cloudy.15 mph93%30.42 "Hg5 mi
Weather by CustomWeather, © 2017

See weather overviewHow to use our weather pages